Location: St. Louis
(38.6270°N, 90.1994°W)
Time: 04:51:46
(UTC-05:00)

deb Delta - Pass Details

Date: 08 July 2022
Orbit: 1084 x 1202 km, 99.8° (Epoch: 15 August)

Event Time Altitude Azimuth Distance (km) Brightness Sun altitude
Exits shadow 02:06:14 58° 178° (S) 1,374 ? -27.3°
Maximum altitude 02:07:50 82° 255° (WSW) 1,211 ? -27.2°
Drops below altitude 10° 02:15:00 10° 344° (NNW) 3,113 ? -26.8°
Sets 02:17:36 0° 345° (NNW) 4,067 ? -26.6°
